Location: Gälforsberget
(66.6500°N, 22.4167°E)
Time: 21:36:49
(UTC+00:00)

MOZ.5/SAFIR/RUBIN 5/SL-8 - Pass Details

Date: 11 April 2026
Orbit: 665 x 693 km, 98.3° (Epoch: 16 May)

Event Time Altitude Azimuth Distance (km) Brightness Sun altitude
Exits shadow 23:24:26 - 137° (SE) 2,675 6.5 -14.1°
Reaches altitude 10° 23:25:45 10° 134° (SE) 2,148 6.0 -14.1°
Maximum altitude 23:30:21 56° 57° (ENE) 824 4.4 -14.0°
Drops below altitude 10° 23:34:56 10° 341° (NNW) 2,143 7.2 -13.9°
Sets 23:37:12 0° 337° (NNW) 3,058 8.0 -13.8°
